Time,TemperatureF,DewpointF,PressureIn,WindDirection,WindDirectionDegrees,WindSpeedMPH,WindSpeedGustMPH,Humidity,HourlyPrecipIn,Conditions,Clouds,dailyrainin,SoftwareType,DateUTC
2013-06-22 00:00:00,70.5,59.5,29.18,NNE,27,0.0,0.0,68,0.00,,SKC,0.00,VWS V14.00,2013-06-22 04:00:00,
2013-06-22 00:05:00,70.3,59.3,29.18,NNE,27,0.0,0.0,68,0.00,,SKC,0.00,VWS V14.00,2013-06-22 04:05:00,
2013-06-22 00:10:00,70.2,59.1,29.18,NNE,27,0.0,0.0,68,0.00,,SKC,0.00,VWS V14.00,2013-06-22 04:10:00,
2013-06-22 00:15:00,70.0,59.0,29.18,NNE,27,0.0,0.0,68,0.00,,SKC,0.00,VWS V14.00,2013-06-22 04:15:00,
2013-06-22 00:20:00,69.8,59.2,29.18,NNE,27,0.0,0.0,69,0.00,,SKC,0.00,VWS V14.00,2013-06-22 04:20:00,
2013-06-22 00:25:00,69.6,59.0,29.18,NNE,27,0.0,0.0,69,0.00,,SKC,0.00,VWS V14.00,2013-06-22 04:25:00,
2013-06-22 00:30:00,69.4,58.8,29.18,NNE,27,0.0,0.0,69,0.00,,SKC,0.00,VWS V14.00,2013-06-22 04:30:00,
2013-06-22 00:35:00,69.3,59.1,29.18,NNE,27,0.0,0.0,70,0.00,,SKC,0.00,VWS V14.00,2013-06-22 04:35:00,
2013-06-22 00:40:00,69.3,59.1,29.18,NNE,27,0.0,0.0,70,0.00,,SKC,0.00,VWS V14.00,2013-06-22 04:40:00,
2013-06-22 00:45:00,69.1,58.9,29.18,NNE,27,0.0,0.0,70,0.00,,SKC,0.00,VWS V14.00,2013-06-22 04:45:00,
2013-06-22 00:50:00,68.9,58.7,29.15,NNE,27,0.0,0.0,70,0.00,,SKC,0.00,VWS V14.00,2013-06-22 04:50:00,
2013-06-22 00:55:00,68.9,58.7,29.15,NNE,27,0.0,0.0,70,0.00,,SKC,0.00,VWS V14.00,2013-06-22 04:55:00,
2013-06-22 01:00:00,68.7,58.5,29.15,NNE,27,0.0,0.0,70,0.00,,SKC,0.00,VWS V14.00,2013-06-22 05:00:00,
2013-06-22 01:05:00,68.7,58.5,29.15,NNE,27,0.0,0.0,70,0.00,,SKC,0.00,VWS V14.00,2013-06-22 05:05:00,
2013-06-22 01:10:00,68.5,58.8,29.15,NNE,27,0.0,0.0,71,0.00,,SKC,0.00,VWS V14.00,2013-06-22 05:10:00,
2013-06-22 01:15:00,68.5,58.8,29.15,NNE,27,0.0,0.0,71,0.00,,SKC,0.00,VWS V14.00,2013-06-22 05:15:00,
2013-06-22 01:20:00,68.4,58.6,29.15,NNE,27,0.0,0.0,71,0.00,,SKC,0.00,VWS V14.00,2013-06-22 05:20:00,
2013-06-22 01:25:00,68.4,58.6,29.15,NNE,27,0.0,0.0,71,0.00,,SKC,0.00,VWS V14.00,2013-06-22 05:25:00,
2013-06-22 01:30:00,68.4,58.6,29.15,NNE,27,0.0,0.0,71,0.00,,SKC,0.00,VWS V14.00,2013-06-22 05:30:00,
2013-06-22 01:35:00,68.4,58.6,29.15,NNE,27,0.0,0.0,71,0.00,,SKC,0.00,VWS V14.00,2013-06-22 05:35:00,
2013-06-22 01:40:00,68.4,58.6,29.15,NNE,27,0.0,0.0,71,0.00,,SKC,0.00,VWS V14.00,2013-06-22 05:40:00,
2013-06-22 01:45:00,68.2,58.4,29.15,NNE,27,0.0,0.0,71,0.00,,SKC,0.00,VWS V14.00,2013-06-22 05:45:00,
2013-06-22 01:50:00,68.2,58.8,29.15,NNE,27,0.0,0.0,72,0.00,,SKC,0.00,VWS V14.00,2013-06-22 05:50:00,
2013-06-22 01:55:00,68.0,58.7,29.15,NNE,27,0.0,0.0,72,0.00,,SKC,0.00,VWS V14.00,2013-06-22 05:55:00,
2013-06-22 02:00:00,68.0,58.7,29.15,NNE,27,0.0,0.0,72,0.00,,SKC,0.00,VWS V14.00,2013-06-22 06:00:00,
2013-06-22 02:05:00,67.8,58.5,29.15,NNE,27,0.0,0.0,72,0.00,,SKC,0.00,VWS V14.00,2013-06-22 06:05:00,
2013-06-22 02:10:00,67.6,58.7,29.15,NNE,27,0.0,0.0,73,0.00,,SKC,0.00,VWS V14.00,2013-06-22 06:10:00,
2013-06-22 02:15:00,67.5,58.5,29.15,NNE,27,0.0,0.0,73,0.00,,SKC,0.00,VWS V14.00,2013-06-22 06:15:00,
2013-06-22 02:20:00,67.5,58.5,29.15,NNE,27,0.0,0.0,73,0.00,,SKC,0.00,VWS V14.00,2013-06-22 06:20:00,
2013-06-22 02:25:00,67.3,58.7,29.15,NNE,27,0.0,0.0,74,0.00,,SKC,0.00,VWS V14.00,2013-06-22 06:25:00,
2013-06-22 02:30:00,67.3,58.7,29.15,NNE,27,0.0,0.0,74,0.00,,SKC,0.00,VWS V14.00,2013-06-22 06:30:00,
2013-06-22 02:35:00,67.3,58.7,29.15,NNE,27,0.0,0.0,74,0.00,,SKC,0.00,VWS V14.00,2013-06-22 06:35:00,
2013-06-22 02:40:00,67.3,58.7,29.15,NNE,27,0.0,0.0,74,0.00,,SKC,0.00,VWS V14.00,2013-06-22 06:40:00,
2013-06-22 02:45:00,67.3,58.7,29.15,NNE,27,0.0,0.0,74,0.00,,SKC,0.00,VWS V14.00,2013-06-22 06:45:00,
2013-06-22 02:50:00,67.1,58.5,29.15,NNE,27,0.0,0.0,74,0.00,,SKC,0.00,VWS V14.00,2013-06-22 06:50:00,
2013-06-22 02:55:00,66.9,58.4,29.15,NNE,27,0.0,0.0,74,0.00,,SKC,0.00,VWS V14.00,2013-06-22 06:55:00,
2013-06-22 03:00:00,66.9,58.8,29.15,NNE,27,0.0,0.0,75,0.00,,SKC,0.00,VWS V14.00,2013-06-22 07:00:00,
2013-06-22 03:05:00,66.9,58.8,29.15,NNE,27,0.0,0.0,75,0.00,,SKC,0.00,VWS V14.00,2013-06-22 07:05:00,
2013-06-22 03:10:00,66.7,58.6,29.15,NNE,27,0.0,0.0,75,0.00,,SKC,0.00,VWS V14.00,2013-06-22 07:10:00,
2013-06-22 03:15:00,66.7,58.9,29.15,NNE,27,0.0,0.0,76,0.00,,SKC,0.00,VWS V14.00,2013-06-22 07:15:00,
2013-06-22 03:20:00,66.7,58.6,29.15,NNE,27,0.0,0.0,75,0.00,,SKC,0.00,VWS V14.00,2013-06-22 07:20:00,
2013-06-22 03:25:00,66.7,58.6,29.15,NNE,27,0.0,0.0,75,0.00,,SKC,0.00,VWS V14.00,2013-06-22 07:25:00,
2013-06-22 03:30:00,66.7,58.6,29.15,NNE,27,0.0,0.0,75,0.00,,SKC,0.00,VWS V14.00,2013-06-22 07:30:00,
2013-06-22 03:35:00,66.6,58.8,29.15,NNE,27,0.0,0.0,76,0.00,,SKC,0.00,VWS V14.00,2013-06-22 07:35:00,
2013-06-22 03:40:00,66.6,58.8,29.15,NNE,27,0.0,0.0,76,0.00,,SKC,0.00,VWS V14.00,2013-06-22 07:40:00,
2013-06-22 03:45:00,66.6,58.8,29.15,NNE,27,0.0,0.0,76,0.00,,SKC,0.00,VWS V14.00,2013-06-22 07:45:00,
2013-06-22 03:50:00,66.4,58.6,29.15,NNE,27,0.0,0.0,76,0.00,,SKC,0.00,VWS V14.00,2013-06-22 07:50:00,
2013-06-22 03:55:00,66.2,58.4,29.15,NNE,27,0.0,0.0,76,0.00,,SKC,0.00,VWS V14.00,2013-06-22 07:55:00,
2013-06-22 04:00:00,66.2,58.4,29.15,NNE,27,0.0,0.0,76,0.00,,SKC,0.00,VWS V14.00,2013-06-22 08:00:00,
2013-06-22 04:06:00,66.0,58.6,29.15,NNE,27,0.0,0.0,77,0.00,,SKC,0.00,VWS V14.00,2013-06-22 08:06:00,
2013-06-22 04:11:00,66.0,58.6,29.15,NNE,27,0.0,0.0,77,0.00,,SKC,0.00,VWS V14.00,2013-06-22 08:11:00,
2013-06-22 04:16:00,66.0,59.0,29.15,NNE,27,0.0,0.0,78,0.00,,SKC,0.00,VWS V14.00,2013-06-22 08:16:00,
2013-06-22 04:21:00,66.0,59.0,29.12,NNE,27,0.0,0.0,78,0.00,,SKC,0.00,VWS V14.00,2013-06-22 08:21:00,
2013-06-22 04:26:00,66.0,58.6,29.12,NNE,27,0.0,0.0,77,0.00,,SKC,0.00,VWS V14.00,2013-06-22 08:26:00,
2013-06-22 04:31:00,65.8,58.8,29.12,NE,36,0.0,0.0,78,0.00,,SKC,0.00,VWS V14.00,2013-06-22 08:31:00,
2013-06-22 04:36:00,65.8,58.8,29.12,NNE,32,0.0,0.0,78,0.00,,SKC,0.00,VWS V14.00,2013-06-22 08:36:00,
2013-06-22 04:41:00,65.8,59.2,29.12,NNE,26,0.0,2.7,79,0.00,,SKC,0.00,VWS V14.00,2013-06-22 08:41:00,
2013-06-22 04:46:00,65.7,59.0,29.12,NNE,33,0.0,3.6,79,0.00,,SKC,0.00,VWS V14.00,2013-06-22 08:46:00,
2013-06-22 04:51:00,65.8,59.5,29.12,NE,42,0.0,0.0,80,0.00,,SKC,0.00,VWS V14.00,2013-06-22 08:51:00,
2013-06-22 04:56:00,65.7,59.3,29.12,NE,42,0.0,0.0,80,0.00,,SKC,0.00,VWS V14.00,2013-06-22 08:56:00,
2013-06-22 05:01:00,65.7,59.3,29.12,East,98,0.0,0.0,80,0.00,,SKC,0.00,VWS V14.00,2013-06-22 09:01:00,
2013-06-22 05:06:00,65.7,59.3,29.12,East,98,0.0,0.0,80,0.00,,SKC,0.00,VWS V14.00,2013-06-22 09:06:00,
2013-06-22 05:11:00,65.7,59.3,29.12,East,98,0.0,0.0,80,0.00,,SKC,0.00,VWS V14.00,2013-06-22 09:11:00,
2013-06-22 05:16:00,65.7,59.3,29.12,East,98,0.0,0.0,80,0.00,,SKC,0.00,VWS V14.00,2013-06-22 09:16:00,
2013-06-22 05:21:00,65.5,59.2,29.12,East,98,0.0,0.0,80,0.00,,SKC,0.00,VWS V14.00,2013-06-22 09:21:00,
2013-06-22 05:26:00,65.5,59.2,29.12,East,98,0.0,0.0,80,0.00,,SKC,0.00,VWS V14.00,2013-06-22 09:26:00,
2013-06-22 05:31:00,65.5,58.8,29.12,East,98,0.0,0.0,79,0.00,,SKC,0.00,VWS V14.00,2013-06-22 09:31:00,
2013-06-22 05:36:00,65.5,59.2,29.12,East,98,0.0,0.0,80,0.00,,SKC,0.00,VWS V14.00,2013-06-22 09:36:00,
2013-06-22 05:41:00,65.5,59.2,29.12,East,98,0.0,0.0,80,0.00,,SKC,0.00,VWS V14.00,2013-06-22 09:41:00,
2013-06-22 05:46:00,65.5,59.2,29.12,East,98,0.0,0.0,80,0.00,,SKC,0.00,VWS V14.00,2013-06-22 09:46:00,
2013-06-22 05:51:00,65.5,59.2,29.12,East,98,0.0,0.0,80,0.00,,SKC,0.00,VWS V14.00,2013-06-22 09:51:00,
2013-06-22 05:56:00,65.5,58.8,29.12,East,98,0.0,0.0,79,0.00,,SKC,0.00,VWS V14.00,2013-06-22 09:56:00,
2013-06-22 06:01:00,65.3,58.6,29.12,East,98,0.0,0.0,79,0.00,,SKC,0.00,VWS V14.00,2013-06-22 10:01:00,
2013-06-22 06:06:00,65.3,59.0,29.15,SW,217,0.0,0.0,80,0.00,,SKC,0.00,VWS V14.00,2013-06-22 10:06:00,
2013-06-22 06:11:00,65.3,59.0,29.15,SW,217,0.0,0.0,80,0.00,,SKC,0.00,VWS V14.00,2013-06-22 10:11:00,
2013-06-22 06:16:00,65.3,58.6,29.15,SW,217,0.0,0.0,79,0.00,,SKC,0.00,VWS V14.00,2013-06-22 10:16:00,
2013-06-22 06:21:00,65.1,58.8,29.15,SW,217,0.0,0.0,80,0.00,,SKC,0.00,VWS V14.00,2013-06-22 10:21:00,
2013-06-22 06:26:00,65.1,58.8,29.15,SW,217,0.0,0.0,80,0.00,,SKC,0.00,VWS V14.00,2013-06-22 10:26:00,
2013-06-22 06:31:00,65.1,58.8,29.15,SW,217,0.0,0.0,80,0.00,,SKC,0.00,VWS V14.00,2013-06-22 10:31:00,
2013-06-22 06:36:00,65.3,59.0,29.18,SW,217,0.0,0.0,80,0.00,,SKC,0.00,VWS V14.00,2013-06-22 10:36:00,
2013-06-22 06:41:00,65.3,59.0,29.18,SW,217,0.0,0.0,80,0.00,,SKC,0.00,VWS V14.00,2013-06-22 10:41:00,
2013-06-22 06:46:00,65.5,59.2,29.18,SW,217,0.0,0.0,80,0.00,,SKC,0.00,VWS V14.00,2013-06-22 10:46:00,
2013-06-22 06:51:00,65.5,59.2,29.18,SE,133,0.0,0.0,80,0.00,,SKC,0.00,VWS V14.00,2013-06-22 10:51:00,
2013-06-22 06:56:00,65.7,59.3,29.18,SE,134,0.0,0.0,80,0.00,,SKC,0.00,VWS V14.00,2013-06-22 10:56:00,
2013-06-22 07:01:00,65.7,59.3,29.18,SE,134,0.0,0.0,80,0.00,,SKC,0.00,VWS V14.00,2013-06-22 11:01:00,
2013-06-22 07:06:00,65.8,59.5,29.18,SE,134,0.0,0.0,80,0.00,,SKC,0.00,VWS V14.00,2013-06-22 11:06:00,
2013-06-22 07:11:00,65.8,59.5,29.18,SE,133,0.0,0.0,80,0.00,,SKC,0.00,VWS V14.00,2013-06-22 11:11:00,
2013-06-22 07:16:00,66.0,60.0,29.18,SE,133,0.0,0.0,81,0.00,,SKC,0.00,VWS V14.00,2013-06-22 11:16:00,
2013-06-22 07:21:00,66.2,60.2,29.18,SE,142,0.0,0.0,81,0.00,,SKC,0.00,VWS V14.00,2013-06-22 11:21:00,
2013-06-22 07:26:00,66.4,60.4,29.18,SE,142,0.0,0.0,81,0.00,,SKC,0.00,VWS V14.00,2013-06-22 11:26:00,
2013-06-22 07:31:00,66.4,60.4,29.18,SE,142,0.0,0.0,81,0.00,,SKC,0.00,VWS V14.00,2013-06-22 11:31:00,
2013-06-22 07:36:00,66.6,60.6,29.18,SSE,159,0.0,0.0,81,0.00,,SKC,0.00,VWS V14.00,2013-06-22 11:36:00,
2013-06-22 07:41:00,66.6,60.6,29.18,SSE,165,0.0,0.0,81,0.00,,SKC,0.00,VWS V14.00,2013-06-22 11:41:00,
2013-06-22 07:46:00,66.9,60.9,29.18,South,177,0.0,0.0,81,0.00,,SKC,0.00,VWS V14.00,2013-06-22 11:46:00,
2013-06-22 07:51:00,67.1,61.1,29.21,South,177,0.0,0.0,81,0.00,,SKC,0.00,VWS V14.00,2013-06-22 11:51:00,
2013-06-22 07:56:00,67.3,61.3,29.21,South,177,0.0,0.0,81,0.00,,SKC,0.00,VWS V14.00,2013-06-22 11:56:00,
2013-06-22 08:01:00,67.6,62.0,29.21,SE,128,0.0,0.0,82,0.00,,SKC,0.00,VWS V14.00,2013-06-22 12:01:00,
2013-06-22 08:06:00,68.0,62.0,29.21,SE,128,0.0,0.0,81,0.00,,SKC,0.00,VWS V14.00,2013-06-22 12:06:00,
2013-06-22 08:11:00,68.2,62.1,29.21,SW,221,0.0,0.0,81,0.00,,SKC,0.00,VWS V14.00,2013-06-22 12:11:00,
2013-06-22 08:16:00,68.5,62.5,29.21,SSW,213,0.0,0.0,81,0.00,,SKC,0.00,VWS V14.00,2013-06-22 12:16:00,
2013-06-22 08:21:00,68.9,62.8,29.18,SSW,210,0.0,0.0,81,0.00,,SKC,0.00,VWS V14.00,2013-06-22 12:21:00,
2013-06-22 08:26:00,69.3,63.2,29.18,SSW,212,0.0,0.0,81,0.00,,SKC,0.00,VWS V14.00,2013-06-22 12:26:00,
2013-06-22 08:31:00,69.6,63.5,29.18,NE,35,0.0,0.0,81,0.00,,SKC,0.00,VWS V14.00,2013-06-22 12:31:00,
2013-06-22 08:36:00,70.0,63.9,29.18,NNE,15,0.0,0.0,81,0.00,,SKC,0.00,VWS V14.00,2013-06-22 12:36:00,
2013-06-22 08:41:00,70.3,64.2,29.18,NE,43,0.0,0.0,81,0.00,,SKC,0.00,VWS V14.00,2013-06-22 12:41:00,
2013-06-22 08:46:00,70.7,64.6,29.18,NNE,28,0.0,0.0,81,0.00,,SKC,0.00,VWS V14.00,2013-06-22 12:46:00,
2013-06-22 08:51:00,71.1,64.6,29.18,NNE,28,0.0,0.0,80,0.00,,SKC,0.00,VWS V14.00,2013-06-22 12:51:00,
2013-06-22 08:56:00,71.4,64.9,29.18,NE,41,0.0,3.6,80,0.00,,SKC,0.00,VWS V14.00,2013-06-22 12:56:00,
2013-06-22 09:01:00,71.6,65.1,29.18,NE,41,0.0,0.0,80,0.00,,SKC,0.00,VWS V14.00,2013-06-22 13:01:00,
2013-06-22 09:06:00,72.0,65.1,29.21,NE,41,0.0,0.0,79,0.00,,SKC,0.00,VWS V14.00,2013-06-22 13:06:00,
2013-06-22 09:11:00,72.3,65.8,29.21,ENE,58,0.0,0.0,80,0.00,,SKC,0.00,VWS V14.00,2013-06-22 13:11:00,
2013-06-22 09:16:00,72.3,65.4,29.21,ENE,58,0.0,0.0,79,0.00,,SKC,0.00,VWS V14.00,2013-06-22 13:16:00,
2013-06-22 09:21:00,72.3,65.4,29.21,ENE,58,0.0,0.0,79,0.00,,SKC,0.00,VWS V14.00,2013-06-22 13:21:00,
2013-06-22 09:26:00,72.7,65.8,29.21,ENE,58,0.0,0.0,79,0.00,,SKC,0.00,VWS V14.00,2013-06-22 13:26:00,
2013-06-22 09:31:00,72.7,65.8,29.21,ENE,58,0.0,0.0,79,0.00,,SKC,0.00,VWS V14.00,2013-06-22 13:31:00,
2013-06-22 09:36:00,72.7,65.4,29.21,ESE,119,0.0,0.0,78,0.00,,SKC,0.00,VWS V14.00,2013-06-22 13:36:00,
2013-06-22 09:41:00,72.9,65.6,29.21,ESE,118,0.0,0.0,78,0.00,,SKC,0.00,VWS V14.00,2013-06-22 13:41:00,
2013-06-22 09:46:00,73.0,65.8,29.21,North,5,0.0,3.1,78,0.00,,SKC,0.00,VWS V14.00,2013-06-22 13:46:00,
2013-06-22 09:51:00,72.9,65.6,29.21,SW,224,0.0,0.0,78,0.00,,SKC,0.00,VWS V14.00,2013-06-22 13:51:00,
2013-06-22 09:57:00,73.2,66.0,29.21,South,175,0.0,0.0,78,0.00,,SKC,0.00,VWS V14.00,2013-06-22 13:57:00,
2013-06-22 10:02:00,73.6,65.9,29.21,NNE,33,0.0,0.0,77,0.00,,SKC,0.00,VWS V14.00,2013-06-22 14:02:00,
2013-06-22 10:07:00,73.9,66.3,29.21,NE,34,3.8,3.8,77,0.00,,SKC,0.00,VWS V14.00,2013-06-22 14:07:00,
2013-06-22 10:12:00,74.5,66.8,29.21,ENE,76,0.0,0.0,77,0.00,,SKC,0.00,VWS V14.00,2013-06-22 14:12:00,
2013-06-22 10:17:00,75.0,66.6,29.21,East,87,0.0,4.0,75,0.00,,SKC,0.00,VWS V14.00,2013-06-22 14:17:00,
2013-06-22 10:22:00,75.2,66.3,29.21,East,88,0.0,0.0,74,0.00,,SKC,0.00,VWS V14.00,2013-06-22 14:22:00,
2013-06-22 10:27:00,75.6,67.1,29.21,East,88,0.0,0.0,75,0.00,,SKC,0.00,VWS V14.00,2013-06-22 14:27:00,
2013-06-22 10:32:00,75.6,66.7,29.21,East,88,0.0,0.0,74,0.00,,SKC,0.00,VWS V14.00,2013-06-22 14:32:00,
2013-06-22 10:37:00,75.7,66.9,29.21,NE,42,4.8,4.8,74,0.00,,SKC,0.00,VWS V14.00,2013-06-22 14:37:00,
2013-06-22 10:42:00,75.9,66.7,29.21,NE,42,0.0,0.0,73,0.00,,SKC,0.00,VWS V14.00,2013-06-22 14:42:00,
2013-06-22 10:47:00,76.1,66.4,29.21,East,97,0.0,0.0,72,0.00,,SKC,0.00,VWS V14.00,2013-06-22 14:47:00,
2013-06-22 10:52:00,76.5,66.0,29.21,NNE,32,0.0,0.0,70,0.00,,SKC,0.00,VWS V14.00,2013-06-22 14:52:00,
2013-06-22 10:57:00,76.5,66.0,29.21,NNE,29,0.0,0.0,70,0.00,,SKC,0.00,VWS V14.00,2013-06-22 14:57:00,
2013-06-22 11:02:00,77.0,66.5,29.21,East,98,0.0,0.0,70,0.00,,SKC,0.00,VWS V14.00,2013-06-22 15:02:00,
2013-06-22 11:07:00,77.4,66.0,29.21,NE,36,0.0,4.0,68,0.00,,SKC,0.00,VWS V14.00,2013-06-22 15:07:00,
2013-06-22 11:12:00,77.7,66.3,29.21,SW,234,0.0,3.6,68,0.00,,SKC,0.00,VWS V14.00,2013-06-22 15:12:00,
2013-06-22 11:17:00,77.9,66.9,29.21,SSE,168,0.0,3.6,69,0.00,,SKC,0.00,VWS V14.00,2013-06-22 15:17:00,
2013-06-22 11:22:00,78.4,67.0,29.21,SSE,168,0.0,0.0,68,0.00,,SKC,0.00,VWS V14.00,2013-06-22 15:22:00,
2013-06-22 11:27:00,78.8,67.4,29.21,NE,42,0.0,0.0,68,0.00,,SKC,0.00,VWS V14.00,2013-06-22 15:27:00,
2013-06-22 11:32:00,79.2,67.3,29.21,SW,218,0.0,0.0,67,0.00,,SKC,0.00,VWS V14.00,2013-06-22 15:32:00,
2013-06-22 11:37:00,79.2,66.8,29.21,NE,50,0.0,0.0,66,0.00,,SKC,0.00,VWS V14.00,2013-06-22 15:37:00,
2013-06-22 11:42:00,79.2,66.8,29.21,NE,37,0.0,0.0,66,0.00,,SKC,0.00,VWS V14.00,2013-06-22 15:42:00,
2013-06-22 11:47:00,79.5,67.2,29.21,NE,36,0.0,0.0,66,0.00,,SKC,0.00,VWS V14.00,2013-06-22 15:47:00,
2013-06-22 11:52:00,79.7,66.9,29.21,NNE,25,0.0,0.0,65,0.00,,SKC,0.00,VWS V14.00,2013-06-22 15:52:00,
2013-06-22 11:57:00,79.9,67.1,29.21,SW,222,3.2,3.2,65,0.00,,SKC,0.00,VWS V14.00,2013-06-22 15:57:00,
2013-06-22 12:02:00,80.4,66.2,29.21,NE,41,0.0,3.6,62,0.00,,SKC,0.00,VWS V14.00,2013-06-22 16:02:00,
2013-06-22 12:07:00,81.0,66.7,29.21,NNE,31,0.0,4.0,62,0.00,,SKC,0.00,VWS V14.00,2013-06-22 16:07:00,
2013-06-22 12:12:00,81.5,67.2,29.21,NE,43,4.8,4.8,62,0.00,,SKC,0.00,VWS V14.00,2013-06-22 16:12:00,
2013-06-22 12:17:00,82.2,67.4,29.21,NNE,19,7.5,7.5,61,0.00,,SKC,0.00,VWS V14.00,2013-06-22 16:17:00,
2013-06-22 12:22:00,82.8,66.0,29.21,NE,45,0.0,6.3,57,0.00,,SKC,0.00,VWS V14.00,2013-06-22 16:22:00,
2013-06-22 12:27:00,82.6,66.3,29.21,NE,42,0.0,6.3,58,0.00,,SKC,0.00,VWS V14.00,2013-06-22 16:27:00,
2013-06-22 12:32:00,82.0,66.3,29.21,NE,42,0.0,0.0,59,0.00,,SKC,0.00,VWS V14.00,2013-06-22 16:32:00,
2013-06-22 12:37:00,81.5,64.3,29.21,NNE,31,0.0,2.7,56,0.00,,SKC,0.00,VWS V14.00,2013-06-22 16:37:00,
2013-06-22 12:42:00,82.0,65.3,29.21,NNE,30,0.0,0.0,57,0.00,,SKC,0.00,VWS V14.00,2013-06-22 16:42:00,
2013-06-22 12:47:00,83.1,65.3,29.21,NNE,27,0.0,6.3,55,0.00,,SKC,0.00,VWS V14.00,2013-06-22 16:47:00,
2013-06-22 12:52:00,84.0,65.6,29.21,NNE,29,3.2,3.6,54,0.00,,SKC,0.00,VWS V14.00,2013-06-22 16:52:00,
2013-06-22 12:57:00,84.2,63.0,29.21,NE,38,3.8,6.3,49,0.00,,SKC,0.00,VWS V14.00,2013-06-22 16:57:00,
2013-06-22 13:02:00,84.7,64.1,29.21,NE,52,0.0,3.6,50,0.00,,SKC,0.00,VWS V14.00,2013-06-22 17:02:00,
2013-06-22 13:07:00,85.5,62.3,29.18,NNE,25,9.9,9.9,46,0.00,,SKC,0.00,VWS V14.00,2013-06-22 17:07:00,
2013-06-22 13:12:00,85.8,62.0,29.18,NNE,31,0.0,3.6,45,0.00,,SKC,0.00,VWS V14.00,2013-06-22 17:12:00,
2013-06-22 13:17:00,86.2,63.0,29.18,NNE,16,3.2,5.4,46,0.00,,SKC,0.00,VWS V14.00,2013-06-22 17:17:00,
2013-06-22 13:22:00,86.4,63.2,29.18,NE,36,0.0,4.0,46,0.00,,SKC,0.00,VWS V14.00,2013-06-22 17:22:00,
2013-06-22 13:27:00,86.7,62.9,29.18,NE,44,0.0,5.4,45,0.00,,SKC,0.00,VWS V14.00,2013-06-22 17:27:00,
2013-06-22 13:32:00,86.9,63.7,29.18,NNE,21,0.0,0.0,46,0.00,,SKC,0.00,VWS V14.00,2013-06-22 17:32:00,
2013-06-22 13:37:00,87.1,63.2,29.18,North,357,0.0,0.0,45,0.00,,SKC,0.00,VWS V14.00,2013-06-22 17:37:00,
2013-06-22 13:42:00,87.1,61.2,29.18,NNE,22,3.8,5.8,42,0.00,,SKC,0.00,VWS V14.00,2013-06-22 17:42:00,
2013-06-22 13:47:00,87.1,61.9,29.18,NNE,18,0.0,5.8,43,0.00,,SKC,0.00,VWS V14.00,2013-06-22 17:47:00,
2013-06-22 13:52:00,87.3,62.1,29.18,NNE,30,0.0,0.0,43,0.00,,SKC,0.00,VWS V14.00,2013-06-22 17:52:00,
2013-06-22 13:57:00,87.4,62.2,29.18,North,353,3.8,3.8,43,0.00,,SKC,0.00,VWS V14.00,2013-06-22 17:57:00,
2013-06-22 14:03:00,87.6,61.0,29.18,NNE,27,3.2,3.6,41,0.00,,SKC,0.00,VWS V14.00,2013-06-22 18:03:00,
2013-06-22 14:08:00,87.4,60.2,29.18,NNE,14,0.0,6.3,40,0.00,,SKC,0.00,VWS V14.00,2013-06-22 18:08:00,
2013-06-22 14:13:00,87.6,61.7,29.18,NE,34,0.0,4.0,42,0.00,,SKC,0.00,VWS V14.00,2013-06-22 18:13:00,
2013-06-22 14:18:00,87.6,60.3,29.18,NE,48,0.0,4.9,40,0.00,,SKC,0.00,VWS V14.00,2013-06-22 18:18:00,
2013-06-22 14:23:00,87.8,60.5,29.15,North,5,0.0,6.3,40,0.00,,SKC,0.00,VWS V14.00,2013-06-22 18:23:00,
2013-06-22 14:28:00,88.0,60.0,29.15,NNE,20,0.0,6.3,39,0.00,,SKC,0.00,VWS V14.00,2013-06-22 18:28:00,
2013-06-22 14:33:00,88.2,60.1,29.15,SW,229,0.0,3.1,39,0.00,,SKC,0.00,VWS V14.00,2013-06-22 18:33:00,
2013-06-22 14:38:00,88.7,60.6,29.15,NW,326,0.0,3.6,39,0.00,,SKC,0.00,VWS V14.00,2013-06-22 18:38:00,
2013-06-22 14:43:00,88.9,60.8,29.15,NNW,335,0.0,0.0,39,0.00,,SKC,0.00,VWS V14.00,2013-06-22 18:43:00,
2013-06-22 14:48:00,89.1,60.2,29.15,North,353,3.8,6.3,38,0.00,,SKC,0.00,VWS V14.00,2013-06-22 18:48:00,
2013-06-22 14:53:00,88.7,59.9,29.15,NNE,29,3.2,3.2,38,0.00,,SKC,0.00,VWS V14.00,2013-06-22 18:53:00,
2013-06-22 14:58:00,88.5,58.2,29.15,ESE,111,0.0,5.4,36,0.00,,SKC,0.00,VWS V14.00,2013-06-22 18:58:00,
2013-06-22 15:03:00,88.3,58.0,29.15,NNE,29,0.0,4.0,36,0.00,,SKC,0.00,VWS V14.00,2013-06-22 19:03:00,
2013-06-22 15:08:00,88.3,57.2,29.15,SE,146,2.7,4.9,35,0.00,,SKC,0.00,VWS V14.00,2013-06-22 19:08:00,
2013-06-22 15:13:00,88.3,58.0,29.15,NNE,14,0.0,2.7,36,0.00,,SKC,0.00,VWS V14.00,2013-06-22 19:13:00,
2013-06-22 15:18:00,88.5,57.4,29.15,NNE,23,0.0,4.5,35,0.00,,SKC,0.00,VWS V14.00,2013-06-22 19:18:00,
2013-06-22 15:23:00,88.7,57.6,29.12,North,353,0.0,3.6,35,0.00,,SKC,0.00,VWS V14.00,2013-06-22 19:23:00,
2013-06-22 15:28:00,88.9,57.7,29.12,NNE,20,4.3,4.3,35,0.00,,SKC,0.00,VWS V14.00,2013-06-22 19:28:00,
2013-06-22 15:33:00,88.7,56.8,29.12,North,0,3.8,8.1,34,0.00,,SKC,0.00,VWS V14.00,2013-06-22 19:33:00,
2013-06-22 15:38:00,88.3,55.6,29.12,NNE,33,0.0,8.1,33,0.00,,SKC,0.00,VWS V14.00,2013-06-22 19:38:00,
2013-06-22 15:43:00,88.2,56.3,29.12,NE,41,0.0,5.8,34,0.00,,SKC,0.00,VWS V14.00,2013-06-22 19:43:00,
2013-06-22 15:48:00,88.0,56.1,29.12,North,4,4.3,5.8,34,0.00,,SKC,0.00,VWS V14.00,2013-06-22 19:48:00,
2013-06-22 15:53:00,88.0,56.1,29.12,NNE,27,3.8,4.0,34,0.00,,SKC,0.00,VWS V14.00,2013-06-22 19:53:00,
2013-06-22 15:58:00,88.0,56.1,29.12,NNE,23,5.9,5.9,34,0.00,,SKC,0.00,VWS V14.00,2013-06-22 19:58:00,
2013-06-22 16:03:00,87.6,55.0,29.12,NNE,30,3.8,5.4,33,0.00,,SKC,0.00,VWS V14.00,2013-06-22 20:03:00,
2013-06-22 16:08:00,87.6,55.0,29.12,NNE,29,4.3,5.4,33,0.00,,SKC,0.00,VWS V14.00,2013-06-22 20:08:00,
2013-06-22 16:13:00,87.3,53.8,29.12,NNE,25,3.2,5.4,32,0.00,,SKC,0.00,VWS V14.00,2013-06-22 20:13:00,
2013-06-22 16:18:00,87.1,53.7,29.12,North,0,4.3,5.8,32,0.00,,SKC,0.00,VWS V14.00,2013-06-22 20:18:00,
2013-06-22 16:23:00,86.9,53.5,29.09,NNE,25,0.0,3.6,32,0.00,,SKC,0.00,VWS V14.00,2013-06-22 20:23:00,
2013-06-22 16:28:00,86.7,53.4,29.09,NE,54,0.0,5.8,32,0.00,,SKC,0.00,VWS V14.00,2013-06-22 20:28:00,
2013-06-22 16:33:00,86.7,53.4,29.09,NNE,15,2.7,4.5,32,0.00,,SKC,0.00,VWS V14.00,2013-06-22 20:33:00,
2013-06-22 16:38:00,86.5,53.2,29.09,NE,36,3.2,4.9,32,0.00,,SKC,0.00,VWS V14.00,2013-06-22 20:38:00,
2013-06-22 16:43:00,86.5,52.3,29.09,NNE,32,3.2,3.6,31,0.00,,SKC,0.00,VWS V14.00,2013-06-22 20:43:00,
2013-06-22 16:48:00,86.4,53.0,29.09,NE,44,0.0,4.9,32,0.00,,SKC,0.00,VWS V14.00,2013-06-22 20:48:00,
2013-06-22 16:53:00,86.2,52.9,29.09,NNE,30,0.0,4.9,32,0.00,,SKC,0.00,VWS V14.00,2013-06-22 20:53:00,
2013-06-22 16:58:00,86.0,52.7,29.09,NNE,29,6.4,6.4,32,0.00,,SKC,0.00,VWS V14.00,2013-06-22 20:58:00,
2013-06-22 17:03:00,85.6,52.4,29.09,North,2,0.0,4.0,32,0.00,,SKC,0.00,VWS V14.00,2013-06-22 21:03:00,
2013-06-22 17:08:00,85.1,52.0,29.09,NE,48,0.0,5.4,32,0.00,,SKC,0.00,VWS V14.00,2013-06-22 21:08:00,
2013-06-22 17:13:00,84.7,52.5,29.09,NE,49,0.0,4.0,33,0.00,,SKC,0.00,VWS V14.00,2013-06-22 21:13:00,
2013-06-22 17:18:00,84.6,52.3,29.09,NE,34,0.0,4.9,33,0.00,,SKC,0.00,VWS V14.00,2013-06-22 21:18:00,
2013-06-22 17:23:00,84.2,51.2,29.09,NE,35,0.0,4.9,32,0.00,,SKC,0.00,VWS V14.00,2013-06-22 21:23:00,
2013-06-22 17:28:00,84.0,51.8,29.09,NNE,29,3.2,4.9,33,0.00,,SKC,0.00,VWS V14.00,2013-06-22 21:28:00,
2013-06-22 17:33:00,84.2,52.0,29.09,NNE,28,0.0,4.0,33,0.00,,SKC,0.00,VWS V14.00,2013-06-22 21:33:00,
2013-06-22 17:38:00,83.8,52.5,29.09,NNE,32,4.3,5.4,34,0.00,,SKC,0.00,VWS V14.00,2013-06-22 21:38:00,
2013-06-22 17:43:00,83.8,52.5,29.09,NNE,24,0.0,3.6,34,0.00,,SKC,0.00,VWS V14.00,2013-06-22 21:43:00,
2013-06-22 17:48:00,83.7,52.3,29.09,NNE,16,0.0,7.2,34,0.00,,SKC,0.00,VWS V14.00,2013-06-22 21:48:00,
2013-06-22 17:53:00,83.5,52.2,29.06,North,353,0.0,3.6,34,0.00,,SKC,0.00,VWS V14.00,2013-06-22 21:53:00,
2013-06-22 17:58:00,83.3,52.0,29.06,NE,34,0.0,4.9,34,0.00,,SKC,0.00,VWS V14.00,2013-06-22 21:58:00,
2013-06-22 18:03:00,83.3,50.4,29.06,NNE,18,4.3,5.4,32,0.00,,SKC,0.00,VWS V14.00,2013-06-22 22:03:00,
2013-06-22 18:08:00,83.3,50.4,29.06,NNE,27,0.0,5.4,32,0.00,,SKC,0.00,VWS V14.00,2013-06-22 22:08:00,
2013-06-22 18:13:00,83.1,50.2,29.06,NNE,32,0.0,2.7,32,0.00,,SKC,0.00,VWS V14.00,2013-06-22 22:13:00,
2013-06-22 18:18:00,82.9,50.1,29.06,NNE,31,0.0,3.1,32,0.00,,SKC,0.00,VWS V14.00,2013-06-22 22:18:00,
2013-06-22 18:23:00,82.8,50.8,29.06,NNE,27,0.0,2.7,33,0.00,,SKC,0.00,VWS V14.00,2013-06-22 22:23:00,
2013-06-22 18:28:00,82.6,49.8,29.06,NNE,29,0.0,3.1,32,0.00,,SKC,0.00,VWS V14.00,2013-06-22 22:28:00,
2013-06-22 18:33:00,82.6,49.8,29.06,NNE,33,3.8,5.4,32,0.00,,SKC,0.00,VWS V14.00,2013-06-22 22:33:00,
2013-06-22 18:38:00,82.8,49.9,29.06,NNE,25,0.0,5.4,32,0.00,,SKC,0.00,VWS V14.00,2013-06-22 22:38:00,
2013-06-22 18:43:00,82.8,49.9,29.06,NE,36,0.0,2.7,32,0.00,,SKC,0.00,VWS V14.00,2013-06-22 22:43:00,
2013-06-22 18:48:00,82.6,50.6,29.06,NNE,30,0.0,2.7,33,0.00,,SKC,0.00,VWS V14.00,2013-06-22 22:48:00,
2013-06-22 18:54:00,82.6,50.6,29.06,NNE,32,0.0,3.1,33,0.00,,SKC,0.00,VWS V14.00,2013-06-22 22:54:00,
2013-06-22 18:59:00,82.6,50.6,29.06,NE,42,0.0,3.6,33,0.00,,SKC,0.00,VWS V14.00,2013-06-22 22:59:00,
2013-06-22 19:04:00,82.2,51.1,29.06,NNE,31,2.7,2.7,34,0.00,,SKC,0.00,VWS V14.00,2013-06-22 23:04:00,
2013-06-22 19:09:00,82.2,51.1,29.06,NE,47,0.0,3.1,34,0.00,,SKC,0.00,VWS V14.00,2013-06-22 23:09:00,
2013-06-22 19:14:00,82.0,50.9,29.06,NNE,32,0.0,2.7,34,0.00,,SKC,0.00,VWS V14.00,2013-06-22 23:14:00,
2013-06-22 19:19:00,81.9,50.8,29.06,NE,37,0.0,3.1,34,0.00,,SKC,0.00,VWS V14.00,2013-06-22 23:19:00,
2013-06-22 19:24:00,81.7,51.4,29.06,NE,37,0.0,0.0,35,0.00,,SKC,0.00,VWS V14.00,2013-06-22 23:24:00,
2013-06-22 19:29:00,81.3,51.1,29.06,NE,41,0.0,0.0,35,0.00,,SKC,0.00,VWS V14.00,2013-06-22 23:29:00,
2013-06-22 19:34:00,81.0,50.8,29.06,NE,41,0.0,0.0,35,0.00,,SKC,0.00,VWS V14.00,2013-06-22 23:34:00,
2013-06-22 19:39:00,80.8,51.4,29.06,NE,38,0.0,0.0,36,0.00,,SKC,0.00,VWS V14.00,2013-06-22 23:39:00,
2013-06-22 19:44:00,80.6,51.2,29.06,NE,34,0.0,0.0,36,0.00,,SKC,0.00,VWS V14.00,2013-06-22 23:44:00,
2013-06-22 19:49:00,80.4,51.8,29.06,NNE,27,0.0,0.0,37,0.00,,SKC,0.00,VWS V14.00,2013-06-22 23:49:00,
2013-06-22 19:54:00,80.4,51.8,29.06,North,11,0.0,3.1,37,0.00,,SKC,0.00,VWS V14.00,2013-06-22 23:54:00,
2013-06-22 19:59:00,80.4,51.8,29.06,NNE,17,0.0,3.1,37,0.00,,SKC,0.00,VWS V14.00,2013-06-22 23:59:00,
2013-06-22 20:04:00,80.2,52.3,29.06,NNE,17,0.0,0.0,38,0.00,,SKC,0.00,VWS V14.00,2013-06-23 00:04:00,
2013-06-22 20:09:00,79.9,52.7,29.06,NNE,17,0.0,0.0,39,0.00,,SKC,0.00,VWS V14.00,2013-06-23 00:09:00,
2013-06-22 20:14:00,79.7,52.6,29.06,NNE,17,0.0,0.0,39,0.00,,SKC,0.00,VWS V14.00,2013-06-23 00:14:00,
2013-06-22 20:19:00,79.3,53.0,29.06,NNE,17,0.0,0.0,40,0.00,,SKC,0.00,VWS V14.00,2013-06-23 00:19:00,
2013-06-22 20:24:00,79.0,52.6,29.06,NNE,17,0.0,0.0,40,0.00,,SKC,0.00,VWS V14.00,2013-06-23 00:24:00,
2013-06-22 20:29:00,78.6,53.0,29.06,NNE,17,0.0,0.0,41,0.00,,SKC,0.00,VWS V14.00,2013-06-23 00:29:00,
2013-06-22 20:34:00,78.3,53.3,29.06,NNE,17,0.0,0.0,42,0.00,,SKC,0.00,VWS V14.00,2013-06-23 00:34:00,
2013-06-22 20:39:00,77.9,53.0,29.06,NNE,17,0.0,0.0,42,0.00,,SKC,0.00,VWS V14.00,2013-06-23 00:39:00,
2013-06-22 20:44:00,77.7,53.5,29.06,NNE,17,0.0,0.0,43,0.00,,SKC,0.00,VWS V14.00,2013-06-23 00:44:00,
2013-06-22 20:49:00,77.4,53.1,29.06,NNE,17,0.0,0.0,43,0.00,,SKC,0.00,VWS V14.00,2013-06-23 00:49:00,
2013-06-22 20:54:00,77.0,53.4,29.06,NNE,17,0.0,0.0,44,0.00,,SKC,0.00,VWS V14.00,2013-06-23 00:54:00,
2013-06-22 20:59:00,76.6,53.7,29.06,NNE,17,0.0,0.0,45,0.00,,SKC,0.00,VWS V14.00,2013-06-23 00:59:00,
2013-06-22 21:04:00,76.5,53.6,29.06,NNE,17,0.0,0.0,45,0.00,,SKC,0.00,VWS V14.00,2013-06-23 01:04:00,
2013-06-22 21:09:00,76.3,54.0,29.06,NNE,17,0.0,0.0,46,0.00,,SKC,0.00,VWS V14.00,2013-06-23 01:09:00,
2013-06-22 21:14:00,76.3,54.0,29.06,NNE,17,0.0,0.0,46,0.00,,SKC,0.00,VWS V14.00,2013-06-23 01:14:00,
2013-06-22 21:19:00,76.1,54.4,29.06,NNE,17,0.0,0.0,47,0.00,,SKC,0.00,VWS V14.00,2013-06-23 01:19:00,
2013-06-22 21:24:00,76.1,54.4,29.06,NNE,17,0.0,0.0,47,0.00,,SKC,0.00,VWS V14.00,2013-06-23 01:24:00,
2013-06-22 21:29:00,75.9,54.3,29.06,NNE,17,0.0,0.0,47,0.00,,SKC,0.00,VWS V14.00,2013-06-23 01:29:00,
2013-06-22 21:34:00,75.9,54.8,29.09,NNE,21,0.0,0.0,48,0.00,,SKC,0.00,VWS V14.00,2013-06-23 01:34:00,
2013-06-22 21:39:00,75.6,54.5,29.09,NNE,21,0.0,0.0,48,0.00,,SKC,0.00,VWS V14.00,2013-06-23 01:39:00,
2013-06-22 21:44:00,75.2,54.8,29.09,NNE,21,0.0,0.0,49,0.00,,SKC,0.00,VWS V14.00,2013-06-23 01:44:00,
2013-06-22 21:49:00,75.0,55.1,29.09,NNE,21,0.0,0.0,50,0.00,,SKC,0.00,VWS V14.00,2013-06-23 01:49:00,
2013-06-22 21:54:00,74.8,55.0,29.09,NNE,21,0.0,0.0,50,0.00,,SKC,0.00,VWS V14.00,2013-06-23 01:54:00,
2013-06-22 21:59:00,74.7,55.3,29.09,NNE,21,0.0,0.0,51,0.00,,SKC,0.00,VWS V14.00,2013-06-23 01:59:00,
2013-06-22 22:04:00,74.7,55.9,29.09,NNE,21,0.0,0.0,52,0.00,,SKC,0.00,VWS V14.00,2013-06-23 02:04:00,
2013-06-22 22:09:00,74.5,56.2,29.09,NNE,21,0.0,0.0,53,0.00,,SKC,0.00,VWS V14.00,2013-06-23 02:09:00,
2013-06-22 22:14:00,74.3,56.1,29.09,NNE,21,0.0,0.0,53,0.00,,SKC,0.00,VWS V14.00,2013-06-23 02:14:00,
2013-06-22 22:19:00,74.1,56.4,29.09,NNE,21,0.0,0.0,54,0.00,,SKC,0.00,VWS V14.00,2013-06-23 02:19:00,
2013-06-22 22:24:00,74.1,56.4,29.09,NNE,21,0.0,0.0,54,0.00,,SKC,0.00,VWS V14.00,2013-06-23 02:24:00,
2013-06-22 22:29:00,73.9,56.3,29.09,NNE,21,0.0,0.0,54,0.00,,SKC,0.00,VWS V14.00,2013-06-23 02:29:00,
2013-06-22 22:34:00,73.8,56.6,29.09,NNE,21,0.0,0.0,55,0.00,,SKC,0.00,VWS V14.00,2013-06-23 02:34:00,
2013-06-22 22:39:00,73.8,56.6,29.09,NNE,21,0.0,0.0,55,0.00,,SKC,0.00,VWS V14.00,2013-06-23 02:39:00,
2013-06-22 22:44:00,73.8,56.6,29.09,NNE,21,0.0,0.0,55,0.00,,SKC,0.00,VWS V14.00,2013-06-23 02:44:00,
2013-06-22 22:49:00,73.4,56.8,29.12,NNE,21,0.0,0.0,56,0.00,,SKC,0.00,VWS V14.00,2013-06-23 02:49:00,
2013-06-22 22:54:00,73.2,57.1,29.12,NNE,21,0.0,0.0,57,0.00,,SKC,0.00,VWS V14.00,2013-06-23 02:54:00,
2013-06-22 22:59:00,73.2,57.1,29.12,NNE,21,0.0,0.0,57,0.00,,SKC,0.00,VWS V14.00,2013-06-23 02:59:00,
2013-06-22 23:04:00,73.0,57.4,29.12,NNE,21,0.0,0.0,58,0.00,,SKC,0.00,VWS V14.00,2013-06-23 03:04:00,
2013-06-22 23:09:00,72.9,57.7,29.12,NNE,21,0.0,0.0,59,0.00,,SKC,0.00,VWS V14.00,2013-06-23 03:09:00,
2013-06-22 23:14:00,72.5,57.8,29.12,NNE,21,0.0,0.0,60,0.00,,SKC,0.00,VWS V14.00,2013-06-23 03:14:00,
2013-06-22 23:19:00,72.5,57.8,29.12,NNE,21,0.0,0.0,60,0.00,,SKC,0.00,VWS V14.00,2013-06-23 03:19:00,
2013-06-22 23:24:00,72.3,58.1,29.12,NNE,21,0.0,0.0,61,0.00,,SKC,0.00,VWS V14.00,2013-06-23 03:24:00,
2013-06-22 23:29:00,72.3,58.6,29.12,NNE,21,0.0,0.0,62,0.00,,SKC,0.00,VWS V14.00,2013-06-23 03:29:00,
2013-06-22 23:34:00,72.3,58.6,29.12,NNE,21,0.0,0.0,62,0.00,,SKC,0.00,VWS V14.00,2013-06-23 03:34:00,
2013-06-22 23:39:00,72.3,59.0,29.12,NNE,21,0.0,0.0,63,0.00,,SKC,0.00,VWS V14.00,2013-06-23 03:39:00,
2013-06-22 23:44:00,72.3,59.5,29.12,NNE,21,0.0,0.0,64,0.00,,SKC,0.00,VWS V14.00,2013-06-23 03:44:00,
2013-06-22 23:49:00,72.1,59.3,29.12,NNE,21,0.0,0.0,64,0.00,,SKC,0.00,VWS V14.00,2013-06-23 03:49:00,
2013-06-22 23:54:00,72.1,59.7,29.12,NNE,21,0.0,0.0,65,0.00,,SKC,0.00,VWS V14.00,2013-06-23 03:54:00,
2013-06-22 23:59:00,72.0,59.6,29.12,NNE,21,0.0,0.0,65,0.00,,SKC,0.00,VWS V14.00,2013-06-23 03:59:00,